TimeEST,TemperatureF,Dew PointF,Humidity,Sea Level PressureIn,VisibilityMPH,Wind Direction,Wind SpeedMPH,Gust SpeedMPH,PrecipitationIn,Events,Conditions,WindDirDegrees,DateUTC
12:15 AM,21.2,14.9,77,30.10,10.0,SE,11.5,17.3,N/A,,Clear,130,2012-01-16 05:15:00
12:34 AM,21.2,14.5,75,30.09,10.0,SE,13.8,18.4,N/A,,Clear,140,2012-01-16 05:34:00
12:54 AM,21.2,13.8,73,30.09,10.0,SE,10.4,-,N/A,,Clear,140,2012-01-16 05:54:00
1:14 AM,21.2,13.6,73,30.08,10.0,SSE,10.4,-,N/A,,Mostly Cloudy,160,2012-01-16 06:14:00
1:34 AM,21.7,14.0,72,30.05,10.0,SSE,13.8,18.4,N/A,,Mostly Cloudy,150,2012-01-16 06:34:00
1:54 AM,21.2,14.0,74,30.04,10.0,SSE,11.5,20.7,N/A,,Clear,150,2012-01-16 06:54:00
2:14 AM,20.8,13.8,74,30.03,10.0,SSE,9.2,-,N/A,,Clear,150,2012-01-16 07:14:00
2:34 AM,20.7,14.0,75,30.02,10.0,SSE,8.1,16.1,N/A,,Clear,160,2012-01-16 07:34:00
2:54 AM,20.8,14.0,75,30.01,10.0,SSE,10.4,19.6,N/A,,Clear,160,2012-01-16 07:54:00
3:14 AM,20.8,14.0,75,30.00,10.0,SSE,8.1,-,N/A,,Clear,160,2012-01-16 08:14:00
3:34 AM,20.8,14.2,75,29.99,10.0,South,10.4,-,N/A,,Clear,170,2012-01-16 08:34:00
3:54 AM,20.8,14.4,76,29.98,10.0,SSE,10.4,-,N/A,,Scattered Clouds,160,2012-01-16 08:54:00
4:14 AM,21.0,14.5,76,29.98,10.0,SSE,9.2,-,N/A,,Clear,160,2012-01-16 09:14:00
4:34 AM,21.6,14.9,76,29.97,10.0,SSE,6.9,-,N/A,,Mostly Cloudy,160,2012-01-16 09:34:00
4:55 AM,22.1,14.9,74,29.95,10.0,SE,10.4,16.1,N/A,,Overcast,140,2012-01-16 09:55:00
5:14 AM,22.1,15.6,76,29.93,10.0,SE,8.1,16.1,N/A,,Overcast,130,2012-01-16 10:14:00
5:34 AM,22.5,15.8,76,29.92,10.0,SE,6.9,-,N/A,,Overcast,130,2012-01-16 10:34:00
5:55 AM,22.6,15.8,75,29.91,10.0,SE,9.2,-,N/A,,Overcast,140,2012-01-16 10:55:00
6:14 AM,22.8,16.2,76,29.90,10.0,SE,10.4,17.3,N/A,,Overcast,140,2012-01-16 11:14:00
6:34 AM,22.8,16.5,77,29.89,10.0,SE,11.5,17.3,N/A,,Overcast,140,2012-01-16 11:34:00
6:54 AM,23.0,16.7,77,29.89,10.0,SE,10.4,-,N/A,,Overcast,130,2012-01-16 11:54:00
7:14 AM,23.0,17.2,79,29.88,10.0,SE,10.4,16.1,N/A,,Overcast,140,2012-01-16 12:14:00
7:34 AM,23.4,17.6,79,29.87,10.0,SE,11.5,16.1,N/A,,Overcast,140,2012-01-16 12:34:00
7:54 AM,23.5,18.0,79,29.86,10.0,SE,10.4,16.1,N/A,,Overcast,140,2012-01-16 12:54:00
8:14 AM,23.5,18.3,80,29.86,10.0,SE,11.5,17.3,N/A,,Overcast,140,2012-01-16 13:14:00
8:34 AM,23.7,18.3,80,29.84,10.0,SE,12.7,17.3,N/A,,Overcast,140,2012-01-16 13:34:00
8:54 AM,23.9,18.7,80,29.85,10.0,SE,10.4,-,N/A,,Overcast,140,2012-01-16 13:54:00
9:14 AM,24.4,19.4,81,29.84,10.0,SE,10.4,-,N/A,,Overcast,140,2012-01-16 14:14:00
9:34 AM,24.8,19.8,81,29.83,10.0,SE,8.1,-,N/A,,Overcast,140,2012-01-16 14:34:00
9:54 AM,25.3,20.3,81,29.83,10.0,SSE,10.4,-,N/A,,Overcast,150,2012-01-16 14:54:00
10:14 AM,25.7,20.8,82,29.82,10.0,SSE,12.7,18.4,N/A,,Overcast,150,2012-01-16 15:14:00
10:34 AM,26.2,21.9,84,29.82,7.0,SSE,10.4,-,N/A,,Overcast,160,2012-01-16 15:34:00
10:54 AM,26.6,22.1,83,29.82,7.0,SSE,10.4,16.1,N/A,,Overcast,160,2012-01-16 15:54:00
11:15 AM,27.1,22.8,84,29.82,7.0,SSE,10.4,-,N/A,,Overcast,160,2012-01-16 16:15:00
11:34 AM,27.5,23.4,84,29.81,7.0,SSE,9.2,-,N/A,,Overcast,160,2012-01-16 16:34:00
11:54 AM,28.0,23.9,84,29.80,7.0,SSE,10.4,-,N/A,,Overcast,160,2012-01-16 16:54:00
12:15 PM,28.8,24.4,84,29.79,7.0,SSE,9.2,-,N/A,,Overcast,160,2012-01-16 17:15:00
12:34 PM,29.3,24.8,83,29.78,7.0,South,6.9,-,N/A,,Overcast,170,2012-01-16 17:34:00
12:54 PM,30.2,25.7,83,29.77,7.0,South,8.1,-,N/A,,Overcast,170,2012-01-16 17:54:00
1:14 PM,30.6,25.7,82,29.76,7.0,South,10.4,-,N/A,,Overcast,180,2012-01-16 18:14:00
1:34 PM,30.7,26.2,83,29.74,7.0,SSE,9.2,-,N/A,,Overcast,160,2012-01-16 18:34:00
1:54 PM,31.1,26.6,83,29.74,10.0,South,5.8,-,N/A,,Overcast,170,2012-01-16 18:54:00
2:14 PM,31.5,27.0,83,29.73,10.0,SSE,6.9,-,N/A,,Overcast,150,2012-01-16 19:14:00
2:34 PM,31.8,27.5,84,29.74,7.0,SSE,4.6,-,N/A,,Overcast,160,2012-01-16 19:34:00
3:14 PM,32.2,28.4,86,29.73,10.0,SSE,3.5,-,N/A,,Overcast,150,2012-01-16 20:14:00
3:34 PM,32.9,29.1,86,29.73,7.0,SSE,3.5,-,N/A,,Overcast,160,2012-01-16 20:34:00
3:54 PM,33.3,29.7,87,29.74,7.0,South,3.5,-,N/A,,Overcast,190,2012-01-16 20:54:00
4:14 PM,33.8,29.8,85,29.75,10.0,SSW,3.5,-,N/A,,Overcast,210,2012-01-16 21:14:00
4:34 PM,33.4,30.0,87,29.76,10.0,SSW,4.6,-,N/A,,Overcast,200,2012-01-16 21:34:00
4:54 PM,33.4,30.0,87,29.76,10.0,South,3.5,-,N/A,,Overcast,170,2012-01-16 21:54:00
5:14 PM,33.3,30.0,88,29.76,7.0,Calm,Calm,-,N/A,,Overcast,0,2012-01-16 22:14:00
5:35 PM,33.4,30.2,88,29.77,7.0,Calm,Calm,-,N/A,,Overcast,0,2012-01-16 22:35:00
5:54 PM,32.9,30.7,92,29.77,7.0,Calm,Calm,-,N/A,,Overcast,0,2012-01-16 22:54:00
6:35 PM,33.8,30.4,87,29.79,7.0,North,4.6,-,N/A,,Overcast,360,2012-01-16 23:35:00
6:54 PM,34.0,30.2,86,29.79,7.0,North,4.6,-,N/A,,Overcast,10,2012-01-16 23:54:00
7:14 PM,34.0,30.6,87,29.80,7.0,North,3.5,-,N/A,,Overcast,10,2012-01-17 00:14:00
7:34 PM,33.8,30.7,89,29.81,7.0,North,5.8,-,N/A,,Overcast,10,2012-01-17 00:34:00
7:54 PM,34.2,30.6,87,29.81,10.0,North,4.6,-,N/A,,Overcast,10,2012-01-17 00:54:00
8:14 PM,34.0,30.2,86,29.82,10.0,North,4.6,-,N/A,,Overcast,10,2012-01-17 01:14:00
8:34 PM,33.8,30.2,87,29.82,10.0,NNE,4.6,-,N/A,,Overcast,20,2012-01-17 01:34:00
8:54 PM,33.3,30.6,90,29.81,7.0,NE,3.5,-,N/A,,Overcast,40,2012-01-17 01:54:00
9:14 PM,33.3,30.9,91,29.80,7.0,NE,4.6,-,N/A,,Overcast,40,2012-01-17 02:14:00
9:54 PM,32.9,30.7,92,29.82,7.0,Calm,Calm,-,N/A,,Overcast,0,2012-01-17 02:54:00
10:15 PM,32.7,30.6,92,29.82,7.0,Calm,Calm,-,N/A,,Overcast,0,2012-01-17 03:15:00
10:34 PM,32.9,30.6,91,29.81,7.0,North,3.5,-,N/A,,Overcast,10,2012-01-17 03:34:00
10:54 PM,33.1,30.6,90,29.81,7.0,North,4.6,-,N/A,,Overcast,10,2012-01-17 03:54:00
11:15 PM,33.3,30.6,90,29.81,7.0,North,6.9,-,N/A,,Overcast,10,2012-01-17 04:15:00
11:34 PM,33.3,30.6,90,29.81,7.0,North,5.8,-,N/A,,Overcast,10,2012-01-17 04:34:00
11:54 PM,33.1,30.7,91,29.81,7.0,NNE,4.6,-,N/A,,Overcast,30,2012-01-17 04:54:00